Regional Weather Roundup
Issued by NWS Columbia, SC

Home | Current Version | Previous Version | Text Only | Print | Product List | Glossary On
Versions: 1 2 3 4 5 6 7 8 9 10 11 12 13 14 15 16 17 18 19 20 21 22 23 24 25 26 27 28 29 30 31 32 33 34 35 36 37 38 39 40 41 42 43 44 45 46 47 48 49 50
288
ASUS42 KCAE 201910
RWRCAE
REGIONAL WEATHER ROUNDUP
NATIONAL WEATHER SERVICE COLUMBIA SC
200 PM EST FRI JAN 20 2017

NOTE: "FAIR" INDICATES FEW OR NO CLOUDS BELOW 12,000 FEET WITH NO
SIGNIFICANT WEATHER AND/OR OBSTRUCTIONS TO VISIBILITY.

NOT ALL STATIONS ARE QUALITY CONTROLLED BY THE NATIONAL
WEATHER SERVICE. USE DATA WITH CAUTION...ESPECIALLY
DEWPOINT OBSERVATIONS.

SCZ001>056-GAZ040-063>065-077-202000-
...UPSTATE SOUTH CAROLINA...

CITY           SKY/WX    TMP DP  RH WIND       PRES   REMARKS
ANDERSON       SUNNY     71  57  61 W10       29.82F
LIBERTY        CLEAR     69  57  65 SW7G16    29.81F
SPARTANBURG    MOSUNNY   63  55  77 CALM      29.82F
CLEMSON        MOSUNNY   70  56  61 W8        29.82F
GREENVILLE     MOSUNNY   69  57  65 SW9G16    29.83F
GREENWOOD      SUNNY     73  55  53 W12G17    29.83F
GREER          MOSUNNY   68  57  68 SW8       29.81F
ROCK HILL      PTSUNNY   66  58  75 W10       29.83F
CHESTER        MOCLDY    68  55  64 CALM      29.83F
LAURENS        PTCLDY    70  55  60 W8G16     29.82F


...CENTRAL SOUTH CAROLINA...

CITY           SKY/WX    TMP DP  RH WIND       PRES   REMARKS
COLUMBIA APT   PTSUNNY   78  57  48 W14G22    29.82F
COLUMBIA OWENS PTSUNNY   75  57  53 W13       29.83F
MCENTIRE ANGB  MOSUNNY   72  59  63 W6        29.83F
ORANGEBURG     MOSUNNY   73  59  61 W8        29.84F
SUMTER SHAW    PTSUNNY   74  58  58 W12       29.80F
NEWBERRY       PTCLDY    72  59  64 SW5       29.85F
AIKEN          FAIR      70  55  60 SW9       29.87F
BARNWELL       MOCLDY    75  63  64 SW7G14    29.85F
MANNING        CLOUDY    72  57  60 W7        29.85F
CAMDEN         CLOUDY    70  59  68 SW9       29.83F
LANCASTER      MOCLDY    66  59  77 W8        29.83F
WINNSBORO      PTCLDY    70  59  68 W6        29.83F


...EASTERN AND COASTAL SOUTH CAROLINA...

CITY           SKY/WX    TMP DP  RH WIND       PRES   REMARKS
MYRTLE BEACH   PTSUNNY   70  59  68 S12       29.86F
N MYRTLE BCH   MOSUNNY   66  60  81 SW10      29.84F
CONWAY         CLOUDY    73  59  60 SW7G16    29.83F
MARION         CLOUDY    72  57  60 W13       29.84F
HARTSVILLE     CLOUDY    68  57  68 W6        29.83F
FLORENCE       PTSUNNY   73  59  61 SW7       29.83F
DARLINGTON     PTSUNNY   70  59  68 W9        29.84F
CHARLESTON APT MOSUNNY   75  58  55 W17G24    29.85F
MOUNT PLEASANT MOCLDY    73  63  68 W8        29.86S
WALTERBORO     CLOUDY    70  61  73 SW10      29.87F
BEAUFORT       CLOUDY    72  61  68 W8        29.87F


...EASTERN GEORGIA...

CITY           SKY/WX    TMP DP  RH WIND       PRES   REMARKS
AUGUSTA BUSH F MOSUNNY   79  57  46 SW14G21   29.82F
AUGUSTA DANIEL MOSUNNY   74  55  51 W5        29.83F
THOMSON        MOSUNNY   78  59  51 W10G23    29.87F
WASHINGTON     FAIR      75  55  50 W13G20    29.83S
CLAXTON        MOCLDY   N/A N/A N/A W7        29.87F
SYLVANIA       CLOUDY   N/A N/A N/A W5        29.87F
STATESBORO     CLOUDY    74  63  69 W13       29.87F
SAVANNAH       PTSUNNY   76  61  59 NW10      29.87F


...SOUTHERN NORTH CAROLINA...

CITY           SKY/WX    TMP DP  RH WIND       PRES   REMARKS
CHARLOTTE      CLOUDY    59  55  87 N5        29.84F
MONROE         CLOUDY    66  57  72 W8        29.82F
ASHEVILLE      MOSUNNY   67  46  47 NW3       29.81F

$$




USA.gov is the U.S. government's official web portal to all federal, state and local government web resources and services.